| time (UTC) | temp F | wind direction | speed MPH | gust MPH | rain 1hr in | rain 24hr in | rain mn in | humidity % | barometer mb |
| 20260505200445 | 86 | 177 | 4.0 | 8.0 | 0.00 | 0.00 | 0.00 | 72 | 1006.8 |
| 20260505195939 | 85 | 146 | 1.0 | 13.0 | 0.00 | 0.00 | 0.00 | 73 | 1006.8 |
| 20260505195434 | 85 | 141 | 3.0 | 13.0 | 0.00 | 0.00 | 0.00 | 73 | 1006.8 |
| 20260505194926 | 85 | 133 | 1.0 | 7.0 | 0.00 | 0.00 | 0.00 | 74 | 1007.1 |
| 20260505194417 | 85 | 173 | 1.0 | 7.0 | 0.00 | 0.00 | 0.00 | 74 | 1007.1 |
| 20260505193911 | 86 | 210 | 4.0 | 6.0 | 0.00 | 0.00 | 0.00 | 72 | 1007.1 |
| 20260505193402 | 86 | 129 | 2.0 | 6.0 | 0.00 | 0.00 | 0.00 | 72 | 1007.1 |
| 20260505192855 | 85 | 198 | 0.0 | 7.0 | 0.00 | 0.00 | 0.00 | 73 | 1007.1 |
| 20260505192354 | 85 | 144 | 4.0 | 7.0 | 0.00 | 0.00 | 0.00 | 74 | 1007.1 |
| 20260505191846 | 84 | 219 | 3.0 | 7.0 | 0.00 | 0.00 | 0.00 | 75 | 1007.5 |
| 20260505191607 | 84 | 157 | 3.0 | 7.0 | 0.00 | 0.00 | 0.00 | 75 | 1007.5 |
| 20260505190835 | 83 | 235 | 2.0 | 7.0 | 0.00 | 0.00 | 0.00 | 76 | 1007.5 |
| 20260505190331 | 82 | 109 | 0.0 | 7.0 | 0.00 | 0.00 | 0.00 | 78 | 1007.5 |
| 20260505185823 | 83 | 172 | 2.0 | 7.0 | 0.00 | 0.00 | 0.00 | 77 | 1007.1 |
| 20260505185318 | 84 | 203 | 4.0 | 7.0 | 0.00 | 0.00 | 0.00 | 75 | 1007.5 |
| 20260505184810 | 84 | 160 | 0.0 | 7.0 | 0.00 | 0.00 | 0.00 | 74 | 1007.5 |
| 20260505184529 | 84 | 179 | 0.0 | 4.0 | 0.00 | 0.00 | 0.00 | 75 | 1007.5 |
| 20260505183803 | 83 | 94 | 1.0 | 7.0 | 0.00 | 0.00 | 0.00 | 77 | 1007.5 |
| 20260505183256 | 83 | 170 | 3.0 | 7.0 | 0.00 | 0.00 | 0.00 | 76 | 1007.5 |
| 20260505182750 | 83 | 130 | 1.0 | 9.0 | 0.00 | 0.00 | 0.00 | 76 | 1007.5 |
| 20260505182242 | 82 | 159 | 0.0 | 9.0 | 0.00 | 0.00 | 0.00 | 77 | 1007.5 |
| 20260505181733 | 82 | 117 | 0.0 | 4.0 | 0.00 | 0.00 | 0.00 | 78 | 1007.5 |
| 20260505181226 | 82 | 141 | 1.0 | 7.0 | 0.00 | 0.00 | 0.00 | 77 | 1007.5 |
| 20260505180942 | 83 | 140 | 3.0 | 7.0 | 0.00 | 0.00 | 0.00 | 77 | 1007.5 |
| 20260505180219 | 83 | 164 | 0.0 | 7.0 | 0.00 | 0.00 | 0.00 | 76 | 1007.8 |
| 20260505175713 | 83 | 189 | 0.0 | 13.0 | 0.00 | 0.00 | 0.00 | 76 | 1007.8 |
| 20260505175430 | 82 | 155 | 4.0 | 9.0 | 0.00 | 0.00 | 0.00 | 78 | 1007.8 |
| 20260505174657 | 82 | 121 | 0.0 | 6.0 | 0.00 | 0.00 | 0.00 | 79 | 1007.8 |
| 20260505174156 | 81 | 159 | 3.0 | 7.0 | 0.00 | 0.00 | 0.00 | 79 | 1007.8 |
| 20260505173648 | 81 | 193 | 2.0 | 9.0 | 0.00 | 0.00 | 0.00 | 79 | 1008.1 |
| 20260505173408 | 82 | 111 | 5.0 | 9.0 | 0.00 | 0.00 | 0.00 | 78 | 1008.1 |
| 20260505172634 | 82 | 148 | 0.0 | 6.0 | 0.00 | 0.00 | 0.00 | 78 | 1008.1 |
| 20260505172134 | 81 | 227 | 0.0 | 8.0 | 0.00 | 0.00 | 0.00 | 78 | 1007.8 |
| 20260505171627 | 81 | 120 | 1.0 | 8.0 | 0.00 | 0.00 | 0.00 | 79 | 1007.8 |
| 20260505171119 | 81 | 171 | 0.0 | 4.0 | 0.00 | 0.00 | 0.00 | 79 | 1008.1 |
| 20260505170831 | 81 | 141 | 0.0 | 4.0 | 0.00 | 0.00 | 0.00 | 80 | 1008.1 |
| 20260505170113 | 81 | 149 | 0.0 | 6.0 | 0.00 | 0.00 | 0.00 | 80 | 1008.1 |
| 20260505165604 | 80 | 212 | 0.0 | 6.0 | 0.00 | 0.00 | 0.00 | 80 | 1008.1 |
| 20260505165059 | 80 | 170 | 0.0 | 4.0 | 0.00 | 0.00 | 0.00 | 80 | 1008.1 |
| 20260505164551 | 80 | 167 | 0.0 | 4.0 | 0.00 | 0.00 | 0.00 | 80 | 1008.1 |
| 20260505164309 | 80 | 286 | 3.0 | 4.0 | 0.00 | 0.00 | 0.00 | 81 | 1008.1 |
| 20260505163542 | 79 | 140 | 0.0 | 9.0 | 0.00 | 0.00 | 0.00 | 82 | 1008.1 |
| 20260505163033 | 79 | 123 | 0.0 | 9.0 | 0.00 | 0.00 | 0.00 | 82 | 1008.1 |
| 20260505162525 | 80 | 160 | 2.0 | 9.0 | 0.00 | 0.00 | 0.00 | 81 | 1008.1 |
| 20260505162023 | 80 | 222 | 0.0 | 9.0 | 0.00 | 0.00 | 0.00 | 80 | 1008.1 |
| 20260505161517 | 80 | 197 | 0.0 | 6.0 | 0.00 | 0.00 | 0.00 | 79 | 1007.8 |
| 20260505161010 | 80 | 181 | 2.0 | 8.0 | 0.00 | 0.00 | 0.00 | 79 | 1007.8 |
| 20260505160505 | 80 | 168 | 2.0 | 8.0 | 0.00 | 0.00 | 0.00 | 80 | 1007.8 |
| 20260505152920 | 79 | 149 | 0.0 | 7.0 | 0.00 | 0.00 | 0.00 | 81 | 1007.8 |
| 20260505152414 | 79 | 154 | 0.0 | 7.0 | 0.00 | 0.00 | 0.00 | 82 | 1007.8 |
| 20260505151905 | 79 | 158 | 1.0 | 4.0 | 0.00 | 0.00 | 0.00 | 82 | 1007.8 |
| 20260505151359 | 78 | 176 | 0.0 | 6.0 | 0.00 | 0.00 | 0.00 | 82 | 1007.8 |
| 20260505151109 | 78 | 107 | 0.0 | 8.0 | 0.00 | 0.00 | 0.00 | 83 | 1007.8 |
| 20260505150346 | 78 | 143 | 0.0 | 8.0 | 0.00 | 0.00 | 0.00 | 82 | 1007.8 |
| 20260505140223 | 77 | 128 | 0.0 | 7.0 | 0.00 | 0.00 | 0.00 | 84 | 1007.5 |
| 20260505130115 | 75 | 153 | 0.0 | 2.0 | 0.00 | 0.00 | 0.00 | 87 | 1007.5 |
| 20260505124559 | 74 | 118 | 0.0 | 4.0 | 0.00 | 0.00 | 0.00 | 87 | 1007.5 |
| 20260505124052 | 74 | 146 | 0.0 | 4.0 | 0.00 | 0.00 | 0.00 | 87 | 1007.5 |
| 20260505123547 | 74 | 107 | 0.0 | 3.0 | 0.00 | 0.00 | 0.00 | 87 | 1007.5 |
| 20260505123043 | 74 | 75 | 0.0 | 3.0 | 0.00 | 0.00 | 0.00 | 88 | 1007.5 |
| 20260505122538 | 74 | 166 | 0.0 | 4.0 | 0.00 | 0.00 | 0.00 | 88 | 1007.1 |
| 20260505122030 | 74 | 156 | 0.0 | 4.0 | 0.00 | 0.00 | 0.00 | 88 | 1007.1 |
| 20260505121522 | 74 | 174 | 0.0 | 1.0 | 0.00 | 0.00 | 0.00 | 88 | 1007.1 |
| 20260505121022 | 73 | 127 | 0.0 | 1.0 | 0.00 | 0.00 | 0.00 | 88 | 1007.1 |
| 20260505120515 | 74 | 139 | 0.0 | 0.0 | 0.00 | 0.00 | 0.00 | 88 | 1006.8 |
| 20260505120008 | 74 | 130 | 0.0 | 1.0 | 0.00 | 0.00 | 0.00 | 88 | 1006.8 |
| 20260505115503 | 73 | 134 | 0.0 | 1.0 | 0.00 | 0.00 | 0.00 | 88 | 1006.8 |
| 20260505114959 | 73 | 169 | 0.0 | 1.0 | 0.00 | 0.00 | 0.00 | 88 | 1006.8 |
| 20260505114452 | 74 | 141 | 0.0 | 6.0 | 0.00 | 0.00 | 0.00 | 88 | 1007.1 |
| 20260505113946 | 74 | 126 | 0.0 | 6.0 | 0.00 | 0.00 | 0.00 | 88 | 1007.1 |
| 20260505113439 | 74 | 134 | 0.0 | 4.0 | 0.00 | 0.00 | 0.00 | 87 | 1007.1 |
| 20260505112935 | 73 | 200 | 0.0 | 2.0 | 0.00 | 0.00 | 0.00 | 88 | 1007.1 |
| 20260505112430 | 73 | 152 | 0.0 | 1.0 | 0.00 | 0.00 | 0.00 | 88 | 1006.8 |
| 20260505111922 | 73 | 159 | 0.0 | 4.0 | 0.00 | 0.00 | 0.00 | 88 | 1007.1 |
| 20260505111415 | 73 | 180 | 0.0 | 4.0 | 0.00 | 0.00 | 0.00 | 88 | 1006.8 |
| 20260505110914 | 73 | 138 | 0.0 | 1.0 | 0.00 | 0.00 | 0.00 | 88 | 1006.8 |
| 20260505110406 | 73 | 131 | 0.0 | 1.0 | 0.00 | 0.00 | 0.00 | 88 | 1006.8 |
| 20260505110125 | 73 | 140 | 0.0 | 1.0 | 0.00 | 0.00 | 0.00 | 88 | 1006.8 |
| 20260505101809 | 73 | 179 | 0.0 | 4.0 | 0.00 | 0.00 | 0.00 | 87 | 1007.1 |
| 20260505101301 | 73 | 150 | 0.0 | 1.0 | 0.00 | 0.00 | 0.00 | 87 | 1007.1 |
| 20260505100758 | 73 | 138 | 0.0 | 1.0 | 0.00 | 0.00 | 0.00 | 87 | 1007.1 |
| 20260505100252 | 73 | 155 | 0.0 | 1.0 | 0.00 | 0.00 | 0.00 | 87 | 1007.5 |
| 20260505100009 | 73 | 158 | 0.0 | 1.0 | 0.00 | 0.00 | 0.00 | 87 | 1007.1 |
| 20260505095502 | 73 | 153 | 0.0 | 1.0 | 0.00 | 0.00 | 0.00 | 87 | 1007.1 |
| 20260505094958 | 73 | 136 | 0.0 | 1.0 | 0.00 | 0.00 | 0.00 | 87 | 1006.8 |
| 20260505094233 | 72 | 132 | 0.0 | 3.0 | 0.00 | 0.00 | 0.00 | 87 | 1006.8 |
| 20260505093725 | 73 | 154 | 0.0 | 3.0 | 0.00 | 0.00 | 0.00 | 87 | 1007.1 |
| 20260505093219 | 73 | 70 | 0.0 | 1.0 | 0.00 | 0.00 | 0.00 | 87 | 1007.1 |
| 20260505092717 | 73 | 151 | 0.0 | 1.0 | 0.00 | 0.00 | 0.00 | 87 | 1007.1 |
| 20260505092209 | 73 | 128 | 0.0 | 1.0 | 0.00 | 0.00 | 0.00 | 86 | 1007.1 |
| 20260505091702 | 73 | 146 | 0.0 | 1.0 | 0.00 | 0.00 | 0.00 | 87 | 1007.5 |
| 20260505091157 | 73 | 144 | 0.0 | 1.0 | 0.00 | 0.00 | 0.00 | 87 | 1007.5 |
| 20260505090647 | 73 | 153 | 0.0 | 1.0 | 0.00 | 0.00 | 0.00 | 87 | 1007.5 |
| 20260505090140 | 73 | 121 | 0.0 | 1.0 | 0.00 | 0.00 | 0.00 | 87 | 1007.5 |
| 20260505085633 | 73 | 141 | 0.0 | 3.0 | 0.00 | 0.00 | 0.00 | 87 | 1007.5 |
| 20260505085125 | 73 | 147 | 0.0 | 3.0 | 0.00 | 0.00 | 0.00 | 87 | 1007.5 |
| 20260505084623 | 72 | 151 | 0.0 | 1.0 | 0.00 | 0.00 | 0.00 | 87 | 1007.5 |
| 20260505084118 | 72 | 133 | 0.0 | 2.0 | 0.00 | 0.00 | 0.00 | 87 | 1007.5 |
| 20260505083608 | 72 | 108 | 2.0 | 2.0 | 0.00 | 0.00 | 0.00 | 87 | 1007.5 |
| 20260505083101 | 72 | 138 | 0.0 | 1.0 | 0.00 | 0.00 | 0.00 | 87 | 1007.5 |
| 20260505082600 | 72 | 154 | 0.0 | 1.0 | 0.00 | 0.00 | 0.00 | 87 | 1007.5 |
| 20260505082053 | 72 | 147 | 0.0 | 1.0 | 0.00 | 0.00 | 0.00 | 87 | 1007.5 |
| 20260505081546 | 72 | 127 | 0.0 | 2.0 | 0.00 | 0.00 | 0.00 | 86 | 1007.5 |
| 20260505081042 | 72 | 128 | 0.0 | 3.0 | 0.00 | 0.00 | 0.00 | 86 | 1007.8 |
| 20260505080538 | 72 | 220 | 0.0 | 3.0 | 0.00 | 0.00 | 0.00 | 86 | 1007.8 |
| 20260505080031 | 72 | 135 | 0.0 | 3.0 | 0.00 | 0.00 | 0.00 | 86 | 1007.8 |
| 20260505075525 | 72 | 225 | 2.0 | 3.0 | 0.00 | 0.00 | 0.00 | 86 | 1007.8 |
| 20260505075017 | 72 | 146 | 0.0 | 3.0 | 0.00 | 0.00 | 0.00 | 86 | 1007.8 |
| 20260505074519 | 72 | 151 | 0.0 | 3.0 | 0.00 | 0.00 | 0.00 | 85 | 1007.8 |
| 20260505074010 | 73 | 278 | 1.0 | 3.0 | 0.00 | 0.00 | 0.00 | 85 | 1007.8 |
| 20260505073502 | 72 | 135 | 0.0 | 3.0 | 0.00 | 0.00 | 0.00 | 85 | 1007.8 |
| 20260505072957 | 72 | 188 | 0.0 | 2.0 | 0.00 | 0.00 | 0.00 | 85 | 1007.8 |
| 20260505072711 | 72 | 183 | 0.0 | 4.0 | 0.00 | 0.00 | 0.00 | 85 | 1007.8 |
| 20260505071947 | 72 | 114 | 0.0 | 4.0 | 0.00 | 0.00 | 0.00 | 85 | 1007.8 |
| 20260505071442 | 72 | 148 | 0.0 | 4.0 | 0.00 | 0.00 | 0.00 | 85 | 1007.8 |
| 20260505070932 | 72 | 151 | 0.0 | 4.0 | 0.00 | 0.00 | 0.00 | 85 | 1007.8 |
| 20260505065925 | 72 | 162 | 0.0 | 2.0 | 0.00 | 0.00 | 0.00 | 85 | 1008.1 |
| 20260505065417 | 72 | 126 | 0.0 | 3.0 | 0.00 | 0.00 | 0.00 | 85 | 1008.1 |
| 20260505064910 | 72 | 132 | 0.0 | 3.0 | 0.00 | 0.00 | 0.00 | 84 | 1008.1 |
| 20260505064407 | 72 | 138 | 1.0 | 4.0 | 0.00 | 0.00 | 0.00 | 84 | 1008.1 |
| 20260505063853 | 72 | 164 | 1.0 | 4.0 | 0.00 | 0.00 | 0.00 | 84 | 1008.5 |
| 20260505063605 | 72 | 139 | 0.0 | 2.0 | 0.00 | 0.00 | 0.00 | 84 | 1008.5 |
| 20260505062844 | 72 | 144 | 0.0 | 3.0 | 0.00 | 0.00 | 0.00 | 84 | 1008.5 |
| 20260505062332 | 72 | 120 | 0.0 | 3.0 | 0.00 | 0.00 | 0.00 | 84 | 1008.5 |
| 20260505061818 | 72 | 153 | 0.0 | 2.0 | 0.00 | 0.00 | 0.00 | 84 | 1008.8 |
| 20260505060805 | 72 | 187 | 0.0 | 1.0 | 0.00 | 0.00 | 0.00 | 83 | 1008.8 |
| 20260505060259 | 72 | 141 | 0.0 | 2.0 | 0.00 | 0.00 | 0.00 | 83 | 1008.8 |
| 20260505055803 | 72 | 143 | 0.0 | 2.0 | 0.00 | 0.00 | 0.00 | 83 | 1008.8 |
| 20260505055516 | 72 | 140 | 0.0 | 2.0 | 0.00 | 0.00 | 0.00 | 83 | 1008.8 |
| 20260505054747 | 72 | 208 | 0.0 | 4.0 | 0.00 | 0.00 | 0.00 | 83 | 1008.8 |
| 20260505054243 | 72 | 165 | 0.0 | 4.0 | 0.00 | 0.00 | 0.00 | 82 | 1008.8 |
| 20260505053739 | 72 | 174 | 2.0 | 3.0 | 0.00 | 0.00 | 0.00 | 82 | 1008.8 |
| 20260505053231 | 72 | 141 | 0.0 | 1.0 | 0.00 | 0.00 | 0.00 | 82 | 1009.1 |
| 20260505052949 | 72 | 122 | 0.0 | 1.0 | 0.00 | 0.00 | 0.00 | 82 | 1009.1 |
| 20260505052220 | 72 | 148 | 0.0 | 1.0 | 0.00 | 0.00 | 0.00 | 82 | 1009.1 |
| 20260505051710 | 72 | 135 | 0.0 | 3.0 | 0.00 | 0.00 | 0.00 | 82 | 1009.1 |
| 20260505051206 | 72 | 123 | 1.0 | 3.0 | 0.00 | 0.00 | 0.00 | 82 | 1009.1 |
| 20260505050659 | 72 | 152 | 0.0 | 2.0 | 0.00 | 0.00 | 0.00 | 81 | 1009.1 |
| 20260505050412 | 72 | 149 | 0.0 | 2.0 | 0.00 | 0.00 | 0.00 | 81 | 1009.1 |
| 20260505041553 | 73 | 150 | 3.0 | 6.0 | 0.00 | 0.00 | 0.00 | 79 | 1009.1 |
| 20260505041048 | 73 | 129 | 0.0 | 6.0 | 0.00 | 0.00 | 0.00 | 79 | 1009.1 |
| 20260505040540 | 73 | 139 | 0.0 | 3.0 | 0.00 | 0.00 | 0.00 | 79 | 1009.1 |
| 20260505040036 | 73 | 150 | 0.0 | 4.0 | 0.00 | 0.00 | 0.00 | 78 | 1009.5 |
| 20260505035526 | 73 | 181 | 1.0 | 6.0 | 0.00 | 0.00 | 0.00 | 78 | 1009.5 |
| 20260505034511 | 74 | 137 | 0.0 | 6.0 | 0.00 | 0.00 | 0.00 | 77 | 1009.5 |
| 20260505034005 | 74 | 135 | 1.0 | 4.0 | 0.00 | 0.00 | 0.00 | 77 | 1009.5 |
| 20260505033502 | 74 | 152 | 0.0 | 6.0 | 0.00 | 0.00 | 0.00 | 77 | 1009.5 |
| 20260505032957 | 74 | 169 | 2.0 | 8.0 | 0.00 | 0.00 | 0.00 | 77 | 1009.5 |
| 20260505032451 | 74 | 122 | 2.0 | 8.0 | 0.00 | 0.00 | 0.00 | 77 | 1009.5 |
| 20260505031945 | 74 | 160 | 3.0 | 7.0 | 0.00 | 0.00 | 0.00 | 76 | 1009.5 |
| 20260505031437 | 74 | 192 | 3.0 | 7.0 | 0.00 | 0.00 | 0.00 | 76 | 1009.5 |
| 20260505030930 | 74 | 167 | 2.0 | 7.0 | 0.00 | 0.00 | 0.00 | 76 | 1009.5 |
| 20260505030424 | 75 | 180 | 0.0 | 4.0 | 0.00 | 0.00 | 0.00 | 76 | 1009.5 |
| 20260505025918 | 75 | 240 | 0.0 | 4.0 | 0.00 | 0.00 | 0.00 | 76 | 1009.5 |
| 20260505025416 | 75 | 134 | 2.0 | 3.0 | 0.00 | 0.00 | 0.00 | 75 | 1009.5 |
| 20260505024908 | 75 | 151 | 0.0 | 6.0 | 0.00 | 0.00 | 0.00 | 75 | 1009.8 |
| 20260505024402 | 75 | 132 | 0.0 | 6.0 | 0.00 | 0.00 | 0.00 | 75 | 1009.5 |
| 20260505023351 | 75 | 130 | 0.0 | 3.0 | 0.00 | 0.00 | 0.00 | 75 | 1009.5 |
| 20260505022845 | 75 | 130 | 0.0 | 4.0 | 0.00 | 0.00 | 0.00 | 75 | 1009.5 |
| 20260505022339 | 75 | 111 | 1.0 | 6.0 | 0.00 | 0.00 | 0.00 | 75 | 1009.1 |
| 20260505021833 | 75 | 134 | 0.0 | 6.0 | 0.00 | 0.00 | 0.00 | 74 | 1009.1 |
| 20260505021330 | 75 | 183 | 0.0 | 7.0 | 0.00 | 0.00 | 0.00 | 74 | 1009.1 |
| 20260505020822 | 75 | 138 | 0.0 | 7.0 | 0.00 | 0.00 | 0.00 | 74 | 1009.1 |
| 20260505020314 | 76 | 152 | 0.0 | 2.0 | 0.00 | 0.00 | 0.00 | 74 | 1009.1 |
| 20260505015805 | 76 | 167 | 2.0 | 2.0 | 0.00 | 0.00 | 0.00 | 74 | 1009.5 |
| 20260505015305 | 76 | 154 | 1.0 | 2.0 | 0.00 | 0.00 | 0.00 | 73 | 1009.1 |
| 20260505014756 | 76 | 176 | 0.0 | 6.0 | 0.00 | 0.00 | 0.00 | 73 | 1009.1 |
| 20260505014248 | 76 | 160 | 0.0 | 6.0 | 0.00 | 0.00 | 0.00 | 74 | 1009.1 |
| 20260505013739 | 76 | 148 | 0.0 | 2.0 | 0.00 | 0.00 | 0.00 | 73 | 1009.1 |
| 20260505013238 | 76 | 150 | 0.0 | 2.0 | 0.00 | 0.00 | 0.00 | 73 | 1009.1 |
| 20260505012731 | 76 | 145 | 0.0 | 1.0 | 0.00 | 0.00 | 0.00 | 73 | 1009.1 |
| 20260505012223 | 76 | 141 | 0.0 | 2.0 | 0.00 | 0.00 | 0.00 | 73 | 1008.8 |
| 20260505011216 | 76 | 143 | 0.0 | 6.0 | 0.00 | 0.00 | 0.00 | 72 | 1009.1 |
| 20260505010709 | 76 | 155 | 0.0 | 4.0 | 0.00 | 0.00 | 0.00 | 72 | 1009.1 |
| 20260505010202 | 76 | 131 | 0.0 | 4.0 | 0.00 | 0.00 | 0.00 | 72 | 1008.8 |
| 20260505005653 | 76 | 197 | 0.0 | 7.0 | 0.00 | 0.00 | 0.00 | 71 | 1008.8 |
| 20260505005153 | 77 | 177 | 0.0 | 7.0 | 0.00 | 0.00 | 0.00 | 71 | 1008.8 |
| 20260505004647 | 77 | 159 | 2.0 | 3.0 | 0.00 | 0.00 | 0.00 | 71 | 1008.8 |
| 20260505004138 | 77 | 138 | 2.0 | 4.0 | 0.00 | 0.00 | 0.00 | 70 | 1008.8 |
| 20260505003631 | 77 | 152 | 0.0 | 6.0 | 0.00 | 0.00 | 0.00 | 70 | 1008.8 |
| 20260505003130 | 78 | 234 | 4.0 | 6.0 | 0.00 | 0.00 | 0.00 | 70 | 1008.8 |
| 20260505002622 | 78 | 135 | 1.0 | 4.0 | 0.00 | 0.00 | 0.00 | 69 | 1008.8 |
| 20260505002116 | 78 | 111 | 1.0 | 7.0 | 0.00 | 0.00 | 0.00 | 69 | 1008.8 |
| 20260505001607 | 78 | 112 | 2.0 | 7.0 | 0.00 | 0.00 | 0.00 | 68 | 1008.5 |
| 20260505001107 | 79 | 182 | 0.0 | 9.0 | 0.00 | 0.00 | 0.00 | 68 | 1008.8 |
| 20260505000559 | 79 | 178 | 3.0 | 9.0 | 0.00 | 0.00 | 0.00 | 68 | 1008.8 |
| 20260505000051 | 79 | 143 | 3.0 | 7.0 | 0.00 | 0.00 | 0.00 | 68 | 1008.8 |
| 20260504235543 | 79 | 173 | 2.0 | 7.0 | 0.00 | 0.00 | 0.00 | 68 | 1008.8 |
| 20260504235039 | 79 | 138 | 0.0 | 7.0 | 0.00 | 0.00 | 0.00 | 68 | 1009.1 |
| 20260504234531 | 79 | 127 | 0.0 | 7.0 | 0.00 | 0.00 | 0.00 | 68 | 1009.1 |
| 20260504234025 | 79 | 173 | 0.0 | 6.0 | 0.00 | 0.00 | 0.00 | 68 | 1009.1 |
| 20260504233517 | 80 | 88 | 0.0 | 7.0 | 0.00 | 0.00 | 0.00 | 67 | 1009.1 |
| 20260504233013 | 79 | 152 | 0.0 | 7.0 | 0.00 | 0.00 | 0.00 | 67 | 1009.1 |
| 20260504232505 | 79 | 144 | 0.0 | 7.0 | 0.00 | 0.00 | 0.00 | 67 | 1009.1 |
| 20260504231957 | 79 | 146 | 0.0 | 6.0 | 0.00 | 0.00 | 0.00 | 67 | 1009.1 |
| 20260504231449 | 79 | 211 | 2.0 | 7.0 | 0.00 | 0.00 | 0.00 | 67 | 1009.1 |
| 20260504230949 | 79 | 199 | 4.0 | 7.0 | 0.00 | 0.00 | 0.00 | 67 | 1009.1 |
| 20260504225932 | 80 | 118 | 0.0 | 6.0 | 0.00 | 0.00 | 0.00 | 66 | 1009.5 |
| 20260504225424 | 81 | 106 | 2.0 | 4.0 | 0.00 | 0.00 | 0.00 | 65 | 1009.5 |
| 20260504224921 | 81 | 197 | 2.0 | 9.0 | 0.00 | 0.00 | 0.00 | 65 | 1009.5 |
| 20260504224416 | 80 | 119 | 2.0 | 9.0 | 0.00 | 0.00 | 0.00 | 66 | 1009.5 |
| 20260504223907 | 81 | 234 | 0.0 | 7.0 | 0.00 | 0.00 | 0.00 | 65 | 1009.5 |
| 20260504223400 | 81 | 160 | 2.0 | 8.0 | 0.00 | 0.00 | 0.00 | 65 | 1009.5 |
| 20260504222900 | 81 | 145 | 0.0 | 8.0 | 0.00 | 0.00 | 0.00 | 65 | 1009.5 |
| 20260504222620 | 81 | 149 | 2.0 | 6.0 | 0.00 | 0.00 | 0.00 | 64 | 1009.5 |
| 20260504222106 | 81 | 114 | 1.0 | 4.0 | 0.00 | 0.00 | 0.00 | 65 | 1009.8 |
| 20260504221340 | 81 | 111 | 1.0 | 6.0 | 0.00 | 0.00 | 0.00 | 64 | 1009.8 |
| 20260504220837 | 81 | 200 | 2.0 | 6.0 | 0.00 | 0.00 | 0.00 | 64 | 1009.8 |
| 20260504220331 | 81 | 170 | 0.0 | 6.0 | 0.00 | 0.00 | 0.00 | 64 | 1009.8 |
| 20260504215825 | 81 | 163 | 2.0 | 6.0 | 0.00 | 0.00 | 0.00 | 63 | 1010.2 |
| 20260504215319 | 81 | 176 | 1.0 | 6.0 | 0.00 | 0.00 | 0.00 | 63 | 1009.8 |
| 20260504214816 | 81 | 159 | 2.0 | 4.0 | 0.00 | 0.00 | 0.00 | 63 | 1010.2 |
| 20260504214310 | 82 | 192 | 0.0 | 10.0 | 0.00 | 0.00 | 0.00 | 62 | 1009.8 |
| 20260504213803 | 82 | 215 | 6.0 | 10.0 | 0.00 | 0.00 | 0.00 | 62 | 1010.2 |
| 20260504213256 | 82 | 139 | 0.0 | 7.0 | 0.00 | 0.00 | 0.00 | 61 | 1010.2 |
| 20260504212754 | 82 | 165 | 0.0 | 7.0 | 0.00 | 0.00 | 0.00 | 61 | 1010.2 |
| 20260504212247 | 82 | 238 | 2.0 | 7.0 | 0.00 | 0.00 | 0.00 | 61 | 1010.2 |
| 20260504211741 | 83 | 167 | 4.0 | 7.0 | 0.00 | 0.00 | 0.00 | 60 | 1010.2 |
| 20260504211235 | 83 | 187 | 2.0 | 6.0 | 0.00 | 0.00 | 0.00 | 60 | 1010.5 |
| 20260504210949 | 83 | 103 | 1.0 | 6.0 | 0.00 | 0.00 | 0.00 | 59 | 1010.2 |
| 20260504210219 | 84 | 112 | 0.0 | 7.0 | 0.00 | 0.00 | 0.00 | 59 | 1010.2 |
| 20260504205711 | 84 | 162 | 2.0 | 7.0 | 0.00 | 0.00 | 0.00 | 58 | 1010.5 |
| 20260504205205 | 85 | 162 | 1.0 | 3.0 | 0.00 | 0.00 | 0.00 | 57 | 1010.5 |
| 20260504204704 | 85 | 40 | 1.0 | 3.0 | 0.00 | 0.00 | 0.00 | 57 | 1010.5 |
| 20260504204154 | 85 | 141 | 1.0 | 4.0 | 0.00 | 0.00 | 0.00 | 57 | 1010.5 |
| 20260504203646 | 85 | 179 | 0.0 | 7.0 | 0.00 | 0.00 | 0.00 | 55 | 1010.5 |
| 20260504203400 | 83 | 118 | 0.0 | 7.0 | 0.00 | 0.00 | 0.00 | 58 | 1010.5 |
| 20260504202636 | 84 | 164 | 3.0 | 7.0 | 0.00 | 0.00 | 0.00 | 57 | 1010.8 |
| 20260504202129 | 83 | 174 | 3.0 | 7.0 | 0.00 | 0.00 | 0.00 | 56 | 1010.8 |
| 20260504201624 | 83 | 183 | 0.0 | 6.0 | 0.00 | 0.00 | 0.00 | 58 | 1010.8 |
| 20260504201114 | 85 | 135 | 2.0 | 2.0 | 0.00 | 0.00 | 0.00 | 57 | 1011.2 |
| 20260504200611 | 84 | 131 | 0.0 | 7.0 | 0.00 | 0.00 | 0.00 | 56 | 1011.2 |